Regional Weather Roundup
Issued by NWS Cleveland, OH

Home | Current Version | Previous Version | Graphics & Text | Print | Product List | Glossary On
Versions: 1 2 3 4 5 6 7 8 9 10 11 12 13 14 15 16 17 18 19 20 21 22 23 24 25 26 27 28 29 30 31 32 33 34 35 36 37 38 39 40 41 42 43 44 45 46 47 48 49 50
000
ASUS41 KCLE 020200
RWRCLE
OHIO REGIONAL WEATHER ROUNDUP
NATIONAL WEATHER SERVICE WILMINGTON, OH
1000 PM EDT TUE SEP 01 2015

NOTE: "FAIR" INDICATES FEW OR NO CLOUDS BELOW 12,000 FEET WITH NO
SIGNIFICANT WEATHER AND/OR OBSTRUCTIONS TO VISIBILITY.

OHZ001>008-015>018-024>027-034-035-043-044-020300-
   NORTHWEST OHIO

CITY           SKY/WX    TMP DP  RH WIND       PRES   REMARKS
DEFIANCE       CLEAR     76  68  76 SW5       30.08R
FINDLAY        CLEAR     72  67  84 S3        30.08R
TOLEDO EXPRESS CLEAR     77  69  76 SW9       30.06S
TOLEDO EXEC    CLEAR     77  67  71 SW7       30.07R
LIMA           PTCLDY    72  68  87 S6        30.10R
$$

OHZ009>014-019>023-028>033-038-089-020300-
   NORTHEAST OHIO

CITY           SKY/WX    TMP DP  RH WIND       PRES   REMARKS
CLE-HOPKINS    MOCLDY    73  69  87 S5        30.11R
CLE-LAKEFRONT  MOCLDY    79  68  69 S6        30.07R
CUY CO. ARPT   PTCLDY    75  70  83 SE5       30.10R
LORAIN-ELYRIA  PTCLDY    72  69  90 S3        30.09R
ASHTABULA      PTCLDY    68  67  96 CALM      30.11R FOG
AKRON-CANTON   PTCLDY    76  67  73 CALM      30.11R
WOOSTER        NOT AVBL
MANSFIELD      MOCLDY    75  67  76 CALM      30.12R
YOUNGSTOWN     CLOUDY    72  66  81 E5        30.12R
$$

OHZ042-051>053-060>062-070>072-077>081-020300-
  SOUTHWEST OHIO

CITY           SKY/WX    TMP DP  RH WIND       PRES   REMARKS
CINC-COVINGTON PTCLDY    76  67  73 W3        30.11R
CINC-LUNKEN    PTCLDY    72  68  87 NE3       30.10S
HAMILTON       PTCLDY    72  68  87 CALM      30.11R
DAYTON         NOT AVBL
WRIGHT-PAT AFB MOCLDY    71  69  95 CALM      30.11S
DAYTON GENERAL MOCLDY    73  64  73 CALM      30.11R
WILMINGTON     PTCLDY    73  65  75 NE5       30.12R
$$

OHZ036-037-039>041-045>050-054>059-063>069-073>076-082>088-020300-
  CENTRAL AND SOUTHEAST OHIO

CITY           SKY/WX    TMP DP  RH WIND       PRES   REMARKS
COLUMBUS       MOCLDY    78  68  71 W6        30.10R
OSU AIRPORT    PTCLDY    75  67  76 W5        30.11R
BOLTON FIELD   NOT AVBL
RICKENBACK AFB NOT AVBL
NEWARK         PTCLDY    73  70  90 CALM      30.11R
MARION         MOCLDY    76  66  71 W6        30.11R
LANCASTER      PTCLDY    72  67  84 W3        30.11S
ZANESVILLE     PTCLDY    71  66  84 CALM      30.11R
NEW PHILLY     PTCLDY    72  69  90 CALM      30.11R
$$


USA.gov is the U.S. government's official web portal to all federal, state and local government web resources and services.